DW8935 Weather Reports


time (UTC)temp
C
wind
direction
speed
KPH
gust
KPH
rain 1hr
cm
rain 24hr
cm
rain mn
cm
humidity
%
barometer
mb
20190423094633 16 142 0.0 9.7 0.00 0.00 0.00 75 1027.0
20190423093106 16 137 0.0 9.7 0.00 0.00 0.00 75 1027.0
20190423091616 16 146 0.0 11.3 0.00 0.00 0.00 75 1026.8
20190423090051 16 150 3.2 12.9 0.00 0.00 0.00 75 1026.7
20190423084610 16 183 9.7 14.5 0.00 0.00 0.00 75 1026.7
20190423083053 16 169 6.4 14.5 0.00 0.00 0.00 75 1026.7
20190423081618 16 173 4.8 12.9 0.00 0.00 0.00 75 1026.6
20190423080101 16 180 4.8 12.9 0.00 0.00 0.00 75 1026.4
20190423074603 16 147 0.0 11.3 0.00 0.00 0.00 74 1026.2
20190423073143 17 155 4.8 11.3 0.00 0.00 0.00 73 1026.1
20190423071642 17 167 1.6 12.9 0.00 0.00 0.00 72 1026.0
20190423070107 17 174 6.4 16.1 0.00 0.00 0.00 70 1025.9
20190423064613 18 145 6.4 12.9 0.00 0.00 0.00 69 1026.0
20190423063059 18 140 0.0 12.9 0.00 0.00 0.00 69 1026.0
20190423061601 18 147 0.0 4.8 0.00 0.00 0.00 69 1026.0
20190423060130 18 149 1.6 8.0 0.00 0.00 0.00 69 1026.0
20190423054635 18 161 0.0 8.0 0.00 0.00 0.00 69 1026.0
20190423053052 18 154 1.6 9.7 0.00 0.00 0.00 68 1025.9
20190423051623 18 130 0.0 9.7 0.00 0.00 0.00 69 1026.0
20190423050110 18 154 0.0 9.7 0.00 0.00 0.00 69 1026.1
20190423044552 18 172 0.0 16.1 0.00 0.00 0.00 69 1026.2
20190423043104 18 183 6.4 12.9 0.00 0.00 0.00 68 1026.4
20190423041538 18 162 4.8 12.9 0.00 0.00 0.00 67 1026.2
20190423040051 19 105 0.0 4.8 0.00 0.00 0.00 67 1026.3
20190423034546 18 107 0.0 8.0 0.00 0.00 0.00 67 1026.4
20190423033109 19 109 1.6 8.0 0.00 0.00 0.00 65 1026.5
20190423031540 19 108 0.0 8.0 0.00 0.00 0.00 66 1026.6
20190423030041 19 108 0.0 8.0 0.00 0.00 0.00 65 1026.7
20190423024534 18 111 0.0 12.9 0.00 0.00 0.00 66 1026.8
20190423023039 18 114 0.0 11.3 0.00 0.00 0.00 67 1027.1
20190423021540 18 114 0.0 0.0 0.00 0.00 0.00 66 1027.2
20190423020018 18 114 0.0 8.0 0.00 0.00 0.00 65 1027.5
20190423014549 18 113 0.0 8.0 0.00 0.00 0.00 66 1027.6
20190423013018 18 132 0.0 8.0 0.00 0.00 0.00 67 1027.7
20190423011521 18 117 1.6 11.3 0.00 0.00 0.00 67 1027.8
20190423010018 18 96 4.8 9.7 0.00 0.00 0.00 69 1027.6
20190423004521 17 88 1.6 9.7 0.00 0.00 0.00 70 1027.8
20190423003008 17 87 0.0 11.3 0.00 0.00 0.00 71 1027.8
20190423001507 17 110 1.6 8.0 0.00 0.00 0.00 71 1027.9
20190423000004 17 122 3.2 11.3 0.00 0.00 0.00 72 1027.9
20190422234621 16 93 0.0 14.5 0.00 0.00 0.00 73 1027.8
20190422233217 16 112 4.8 12.9 0.00 0.00 0.00 73 1027.9
20190422231743 16 109 1.6 8.0 0.00 0.00 0.00 74 1027.9
20190422230201 16 112 3.2 11.3 0.00 0.00 0.00 74 1028.0
20190422224644 15 122 3.2 12.9 0.00 0.00 0.00 74 1028.1
20190422223151 15 121 4.8 14.5 0.00 0.00 0.00 74 1028.1
20190422221638 15 123 4.8 12.9 0.00 0.00 0.00 75 1028.0
20190422220146 15 127 1.6 9.7 0.00 0.00 0.00 76 1028.0
20190422214629 15 128 0.0 9.7 0.00 0.00 0.00 76 1027.8
20190422213240 15 128 0.0 11.3 0.00 0.00 0.00 76 1027.6
20190422211642 15 126 0.0 8.0 0.00 0.00 0.00 76 1027.6
20190422210120 15 125 1.6 11.3 0.00 0.00 0.00 76 1027.4
20190422204635 15 121 0.0 12.9 0.00 0.00 0.00 75 1027.2
20190422203146 15 121 1.6 11.3 0.00 0.00 0.00 75 1027.3
20190422201620 15 121 3.2 12.9 0.00 0.00 0.00 75 1027.1
20190422200131 15 121 4.8 14.5 0.00 0.00 0.00 75 1027.0
20190422194653 15 122 0.0 0.0 0.00 0.00 0.00 75 1026.9
20190422193201 15 122 3.2 11.3 0.00 0.00 0.00 76 1026.8
20190422191613 15 122 0.0 6.4 0.00 0.00 0.00 75 1026.7
20190422190227 15 126 0.0 6.4 0.00 0.00 0.00 75 1026.5
20190422184606 15 123 0.0 8.0 0.00 0.00 0.00 76 1026.4
20190422183128 15 123 0.0 8.0 0.00 0.00 0.00 76 1026.3
20190422181707 15 123 0.0 11.3 0.00 0.00 0.00 76 1026.2
20190422180108 15 121 0.0 8.0 0.00 0.00 0.00 75 1026.1
20190422174624 15 119 0.0 12.9 0.00 0.00 0.00 75 1026.0
20190422173048 15 119 0.0 4.8 0.00 0.00 0.00 76 1026.2
20190422171627 14 119 0.0 6.4 0.00 0.00 0.00 76 1026.3
20190422170118 14 119 0.0 3.2 0.00 0.00 0.00 75 1026.4
20190422164559 14 119 0.0 0.0 0.00 0.00 0.00 75 1026.4
20190422163047 14 119 0.0 0.0 0.00 0.00 0.00 75 1026.5
20190422161616 14 119 0.0 4.8 0.00 0.00 0.00 74 1026.6
20190422160058 14 119 0.0 6.4 0.00 0.00 0.00 74 1026.6
20190422154620 14 119 3.2 8.0 0.00 0.00 0.00 74 1026.9
20190422153112 15 119 0.0 6.4 0.00 0.00 0.00 74 1027.1
20190422151542 15 119 1.6 8.0 0.00 0.00 0.00 73 1027.2
20190422150102 15 120 0.0 12.9 0.00 0.00 0.00 73 1027.3
20190422144543 14 122 1.6 8.0 0.00 0.00 0.00 73 1027.3
20190422143024 14 123 0.0 8.0 0.00 0.00 0.00 73 1027.3
20190422141545 15 123 1.6 11.3 0.00 0.00 0.00 73 1027.3
20190422140047 15 132 1.6 8.0 0.00 0.00 0.00 73 1027.3
20190422134524 15 132 1.6 8.0 0.00 0.00 0.00 72 1027.6
20190422133102 15 132 0.0 0.0 0.00 0.00 0.00 72 1027.7
20190422131530 15 132 0.0 6.4 0.00 0.00 0.00 72 1027.7
20190422130017 15 132 0.0 8.0 0.00 0.00 0.00 72 1027.7
20190422124532 15 133 1.6 4.8 0.00 0.00 0.00 72 1027.7
20190422123023 15 132 0.0 11.3 0.00 0.00 0.00 71 1027.7
20190422121527 15 134 0.0 6.4 0.00 0.00 0.00 71 1027.8
20190422120135 15 133 0.0 4.8 0.00 0.00 0.00 70 1027.9
20190422114622 15 133 0.0 6.4 0.00 0.03 0.00 69 1028.0
20190422113036 15 133 0.0 8.0 0.00 0.03 0.00 69 1027.8
20190422111526 15 132 0.0 8.0 0.00 0.03 0.00 69 1027.8
20190422110016 15 130 1.6 12.9 0.00 0.03 0.00 69 1027.5
20190422104551 15 138 0.0 8.0 0.00 0.20 0.00 69 1027.4
20190422103019 15 139 0.0 9.7 0.00 0.20 0.00 70 1027.4
20190422101513 15 139 0.0 8.0 0.00 0.20 0.00 71 1027.4
20190422100018 15 140 1.6 8.0 0.00 0.20 0.00 70 1027.3